Weather History for East Milton, MA

Change the Weather History Date:

Tuesday, May 6, 2014

  Actual Average (KBOS) Record (KBOS)
Temperature  
Mean Temperature 52 °F 55 °F  
Max Temperature 62 °F 63 °F 90 °F (1930)
Min Temperature 43 °F 47 °F 33 °F (1891)
Degree Days  
Heating Degree Days 13 11  
Month to date heating degree days 68  
Since 1 July heating degree days 5449  
Cooling Degree Days 0 0  
Month to date cooling degree days 0  
Year to date cooling degree days 3  
Growing Degree Days 2 (Base 50)    
Moisture  
Dew Point 32 °F    
Average Humidity 47    
Maximum Humidity 76    
Minimum Humidity 29    
Precipitation  
Precipitation 0.01 in 0.11 in 1.00 in (1998)
Month to date precipitation 0.65  
Year to date precipitation 15.32  
Sea Level Pressure  
Sea Level Pressure 29.91 in    
Wind  
Wind Speed 10 mph (NNW)    
Max Wind Speed 17 mph    
Max Gust Speed 30 mph    
T = Trace of Precipitation, MM = Missing Value Source: NWS Daily Summary

Daily Weather History Graph

Daily Weather History Graph

Search for Another Location

Airport:

Trip Planner

Search our weather history database for the weather conditions in past years. The results will help you decide how hot, cold, wet, or windy it might be!

Date:

Astronomy

May. 06, 2014 Rise Set
Actual Time 5:33 AM EDT 7:49 PM EDT
Civil Twilight 5:02 AM EDT 8:20 PM EDT
Nautical Twilight 4:24 AM EDT 8:58 PM EDT
Astronomical Twilight 3:41 AM EDT 9:41 PM EDT
Moon 11:48 AM EDT (5/6) 1:05 AM EDT (5/6)
Length of Visible Light 15h 17m
Length of Day
14h 15m
Waxing Crescent, 46% of the Moon is Illuminated
May 6
Waxing Crescent
May 6
First Quarter
May 14
Full
May 21
Last Quarter
May 28
New

Hourly Weather History & Observations

Time (EDT) Temp. Windchill Dew Point Humidity Pressure Visibility Wind Dir Wind Speed Gust Speed Precip Events Conditions
12:54 AM 46.9 °F - 37.0 °F 68% 29.88 in - NNW 9.2 mph - N/A   Unknown
1:54 AM 46.0 °F 41.9 °F 36.0 °F 68% 29.88 in - NW 8.1 mph - N/A   Unknown
2:54 AM 44.1 °F 38.6 °F 36.0 °F 73% 29.87 in - NW 10.4 mph - N/A   Unknown
3:54 AM 43.0 °F 37.2 °F 36.0 °F 76% 29.86 in - WNW 10.4 mph - N/A   Unknown
7:54 AM 48.9 °F - 37.9 °F 66% 29.90 in - WNW 9.2 mph - N/A   Unknown
8:54 AM 53.1 °F - 36.0 °F 52% 29.90 in - NW 12.7 mph 19.6 mph N/A   Unknown
9:54 AM 55.9 °F - 32.0 °F 40% 29.89 in - NW 10.4 mph 17.3 mph N/A   Unknown
10:54 AM 59.0 °F - 30.9 °F 35% 29.88 in - NW 9.2 mph 19.6 mph N/A   Unknown
11:54 AM 61.0 °F - 28.0 °F 29% 29.87 in - NW 13.8 mph 24.2 mph N/A   Unknown
12:54 PM 61.0 °F - 28.0 °F 29% 29.85 in - NW 13.8 mph 20.7 mph N/A   Unknown
1:54 PM 57.0 °F - 32.0 °F 39% 29.87 in - North 6.9 mph - 0.01 in   Unknown
2:54 PM 57.9 °F - 30.0 °F 35% 29.87 in - ENE 3.5 mph - N/A   Unknown
3:54 PM 57.9 °F - 28.9 °F 33% 29.86 in - North 13.8 mph 29.9 mph N/A   Unknown
4:01 PM 57.2 °F - 30.2 °F 36% 29.83 in - NNW 15.0 mph 25.3 mph N/A   Unknown
4:54 PM 57.9 °F - 28.0 °F 32% 29.88 in - NNW 10.4 mph 21.9 mph N/A   Unknown
5:54 PM 59.0 °F - 28.0 °F 31% 29.89 in - NW 17.3 mph 23.0 mph N/A   Unknown
6:54 PM 57.0 °F - 26.1 °F 30% 29.92 in - NW 10.4 mph 17.3 mph N/A   Unknown
7:54 PM 55.0 °F - 25.0 °F 31% 29.95 in - NW 12.7 mph 20.7 mph N/A   Unknown
8:54 PM 51.1 °F - 35.1 °F 54% 30.00 in - ENE 11.5 mph - N/A   Unknown
9:54 PM 50.0 °F - 36.0 °F 59% 30.03 in - ENE 6.9 mph - N/A   Unknown
10:54 PM 48.9 °F - 35.1 °F 59% 30.04 in - NNE 6.9 mph - N/A   Unknown
11:54 PM 46.9 °F - 35.1 °F 63% 30.05 in - NNW 8.1 mph - N/A   Unknown